Home > Weather > Utrecht > Past weeks

Flag for Netherlands Past Weather in Utrecht, Netherlands — Yesterday and Last 2 Weeks

Now
61 °F

Drizzle. Partly sunny.


Feels Like: 61 °F
Forecast: 51 / 64 °F
Wind: 16 mph from Southwest

Location: Amsterdam Schiphol Airport

Current Time: Jun 27, 2016 at 11:40:19 AM

Latest Report: Jun 27, 2016 at 10:55 AM


Visibility: 5 mi

Pressure: 29.98 "Hg

Humidity: 88%

Dew Point: 57 °F

Location of UtrechtLocation

Past Weather in Utrecht — Graph

°F

Utrecht Temperature Yesterday

Maximum temperature yesterday: 66 °F (at 2:55 PM)
Minimum temperature yesterday: 54 °F (at 12:25 AM)
Average temperature yesterday: 60 °F

High & Low Weather Summary for the Past Weeks

 TemperatureHumidityPressure
High81 °F (Jun 23, 4:55 PM)100% (Jun 13, 12:55 AM)30.24 "Hg (Jun 13, 12:55 AM)
Low52 °F (Jun 15, 5:55 AM)56% (Jun 16, 11:25 AM)29.45 "Hg (Jun 14, 8:25 AM)
Average62 °F84%29.87 "Hg
* Reported Jun 12 9:25 AM — Jun 27 9:55 AM, Utrecht, Weather by CustomWeather, © 2016

Note: Actual official high and low records may vary slightly from our data, if they occured in-between our weather recording intervals... More about our weather records

Advertising

Utrecht Weather History for the Previous 24 Hours

Scroll right to see more
 ConditionsComfort  
Time TempWeatherWind HumidityBarometerVisibility
9:55 AM
Mon, Jun 27
59 °FPartly sunny.14 mph94%29.98 "HgN/A
9:25 AM59 °FBroken clouds.15 mph94%29.98 "Hg6 mi
8:55 AM59 °FPartly sunny.15 mph88%29.98 "HgN/A
8:25 AM59 °FBroken clouds.14 mph94%29.98 "HgN/A
7:55 AM59 °FBroken clouds.14 mph94%29.98 "Hg6 mi
7:25 AM59 °FDrizzle. Broken clouds.14 mph94%29.98 "Hg6 mi
6:55 AM61 °FScattered clouds.12 mph88%29.98 "HgN/A
6:25 AM59 °FPassing clouds.12 mph94%29.98 "HgN/A
5:55 AM59 °FPassing clouds.10 mph94%29.98 "HgN/A
5:25 AM59 °FPassing clouds.10 mph94%29.98 "HgN/A
4:55 AM59 °FPartly cloudy.9 mph94%29.98 "HgN/A
4:25 AM59 °FPartly cloudy.9 mph94%29.98 "HgN/A
3:55 AM59 °FPassing clouds.9 mph94%29.98 "HgN/A
3:25 AM59 °FScattered showers. Passing clouds.9 mph94%29.98 "HgN/A
2:55 AM59 °FScattered showers. Passing clouds.10 mph94%30.01 "HgN/A
2:25 AM61 °FSprinkles. Passing clouds.13 mph83%30.01 "HgN/A
1:55 AM61 °FPassing clouds.12 mph83%30.01 "HgN/A
1:25 AM59 °FPassing clouds.7 mph88%30.01 "HgN/A
12:55 AM59 °FClear.6 mph88%30.01 "Hg10 mi
12:25 AM59 °FClear.6 mph88%30.01 "Hg10 mi
11:55 PM
Sun, Jun 26
59 °FClear.6 mph88%30.04 "Hg10 mi
11:25 PM57 °FClear.8 mph88%30.04 "Hg10 mi
10:55 PM59 °FPassing clouds.7 mph82%30.04 "HgN/A
10:25 PM61 °FPassing clouds.9 mph77%30.04 "HgN/A
9:55 PM61 °FPassing clouds.10 mph77%30.01 "HgN/A
9:25 PM61 °FPassing clouds.12 mph77%30.01 "HgN/A
8:55 PM61 °FPassing clouds.9 mph77%30.01 "HgN/A
8:25 PM61 °FPassing clouds.14 mph72%30.01 "HgN/A
7:55 PM63 °FPassing clouds.15 mph68%30.01 "HgN/A
7:25 PM61 °FPassing clouds.14 mph72%30.01 "HgN/A
6:55 PM63 °FPassing clouds.14 mph68%30.01 "HgN/A
6:25 PM63 °FPassing clouds.15 mph73%30.01 "HgN/A
5:55 PM64 °FPassing clouds.10 mph68%30.01 "HgN/A
5:25 PM64 °FPassing clouds.13 mph64%30.01 "HgN/A
4:55 PM64 °FScattered clouds.13 mph64%30.01 "HgN/A
4:25 PM66 °FScattered clouds.15 mph64%30.01 "HgN/A
3:55 PM64 °FScattered clouds.14 mph73%30.01 "HgN/A
3:25 PM64 °FScattered clouds.14 mph68%30.01 "HgN/A
2:55 PM66 °FPassing clouds.15 mph64%30.01 "HgN/A
2:25 PM64 °FPassing clouds.15 mph68%30.01 "HgN/A
1:55 PM64 °FPassing clouds.15 mph68%30.01 "HgN/A
1:25 PM64 °FPassing clouds.12 mph68%30.01 "HgN/A
12:55 PM64 °FPassing clouds.13 mph64%30.01 "HgN/A
12:25 PM64 °FPassing clouds.13 mph64%29.98 "HgN/A
11:55 AM64 °FPassing clouds.13 mph68%29.98 "HgN/A
11:25 AM64 °FPassing clouds.13 mph68%29.98 "HgN/A
Weather by CustomWeather, © 2016

See weather overviewHow to use our weather pages